Погода в Вырице

Россия / Санкт-Петербург и Ленинградская область     59°25′02″N   30°20′49″E
темп.,
°C
ветер,
м/с
пор.,
м/с
влажн.,
%
обл.,
%
осадки,
мм/ч
давл.,
гПа
погр.,
м
27 июля, вт
вт2700:00+18ю11665 0.0 102011
03:00+17юз22705 0.0 102136
06:00+17ююз23690 0.0 102048
09:00+24ю12461 0.0 1019378
12:00+28юв23335 0.0 10192287
15:00+29юв332839 0.0 10172743
18:00+28юв333184 0.0 10152528
21:00+22ююв2255100 0.0 101516
28 июля, ср
ср2800:00+19вюв2264100 0.0 101431
03:00+18вюв2466100 0.0 101369
06:00+17юв2770100 0.0 1012161
09:00+19ююз2478100 0.2 1011263
12:00+19юв1390100 0.8 1010209
15:00+24ююв465785 0.8 10081360
18:00+20ююз3791100 1.9 1007396
21:00+19юз2695100 5.1 1006151
29 июля, чт
чт2900:00+17зюз249662 0.0 1006100
03:00+16зюз24975 0.0 100591
06:00+16юз289738 0.0 1005203
09:00+20зюз3680100 0.0 1004516
12:00+23зюз5756100 0.0 10031361
15:00+21зюз59810 1.8 10031033
18:00+21з410775 1.6 10021081
21:00+17зюз26915 2.2 1002137
30 июля, пт
пт3000:00+15юз2109582 0.0 1002258
03:00+16юз41287100 0.0 1002574
06:00+16юз4128760 0.0 1002634
09:00+20зюз596215 0.0 10021163
12:00+23зюз6104221 0.3 10012262
15:00+24зюз593687 0.3 10003034
18:00+21юз4104928 0.0 10001394
21:00+17ююз246774 0.1 100072
31 июля, сб
сб3100:00+15ю3107035 0.0 999208
03:00+14ююз3107265 0.0 998386
06:00+15ю5126899 0.0 996769
09:00+15юз51383100 1.2 9951214
12:00+16юз6129094 2.7 9951092
15:00+19з610720 4.5 9971199
18:00+22з474816 0.0 9981600
21:00+16зюз23742 0.0 100050